Year,Month,Day,Hour,Minute,Value (Times are PST for temperature in C)
2019,04,27,00,00,8.70
2019,04,27,00,01,8.70
2019,04,27,00,02,8.70
2019,04,27,00,03,8.70
2019,04,27,00,04,8.70
2019,04,27,00,05,8.60
2019,04,27,00,06,8.60
2019,04,27,00,07,8.60
2019,04,27,00,08,8.60
2019,04,27,00,09,8.60
2019,04,27,00,10,8.60
2019,04,27,00,11,8.60
2019,04,27,00,12,8.60
2019,04,27,00,13,8.60
2019,04,27,00,14,8.60
2019,04,27,00,15,8.60
2019,04,27,00,16,8.60
2019,04,27,00,17,8.60
2019,04,27,00,18,8.60
2019,04,27,00,19,8.60
2019,04,27,00,20,8.60
2019,04,27,00,21,8.60
2019,04,27,00,22,8.60
2019,04,27,00,23,8.60
2019,04,27,00,24,8.60
2019,04,27,00,25,8.60
2019,04,27,00,26,8.60
2019,04,27,00,27,8.60
2019,04,27,00,28,8.60
2019,04,27,00,29,8.70
2019,04,27,00,30,8.70
2019,04,27,00,31,8.70
2019,04,27,00,32,8.70
2019,04,27,00,33,8.70
2019,04,27,00,34,8.70
2019,04,27,00,35,8.70
2019,04,27,00,36,8.70
2019,04,27,00,37,8.70
2019,04,27,00,38,8.60
2019,04,27,00,39,8.60
2019,04,27,00,40,8.60
2019,04,27,00,41,8.60
2019,04,27,00,42,8.60
2019,04,27,00,43,8.50
2019,04,27,00,44,8.50
2019,04,27,00,45,8.50
2019,04,27,00,46,8.50
2019,04,27,00,47,8.40
2019,04,27,00,48,8.40
2019,04,27,00,49,8.40
2019,04,27,00,50,8.40
2019,04,27,00,51,8.40
2019,04,27,00,52,8.30
2019,04,27,00,53,8.30
2019,04,27,00,54,8.30
2019,04,27,00,55,8.30
2019,04,27,00,56,8.30
2019,04,27,00,57,8.30
2019,04,27,00,58,8.30
2019,04,27,00,59,8.30
2019,04,27,01,00,8.30
2019,04,27,01,01,8.20
2019,04,27,01,02,8.20
2019,04,27,01,03,8.20
2019,04,27,01,04,8.20
2019,04,27,01,05,8.20
2019,04,27,01,06,8.10
2019,04,27,01,07,8.10
2019,04,27,01,08,8.10
2019,04,27,01,09,8.10
2019,04,27,01,10,8.00
2019,04,27,01,11,8.00
2019,04,27,01,12,8.00
2019,04,27,01,13,7.90
2019,04,27,01,14,7.90
2019,04,27,01,15,7.90
2019,04,27,01,16,7.90
2019,04,27,01,17,7.80
2019,04,27,01,18,7.80
2019,04,27,01,19,7.80
2019,04,27,01,20,7.80
2019,04,27,01,21,7.80
2019,04,27,01,22,7.80
2019,04,27,01,23,7.80
2019,04,27,01,24,7.70
2019,04,27,01,25,7.70
2019,04,27,01,26,7.70
2019,04,27,01,27,7.70
2019,04,27,01,28,7.70
2019,04,27,01,29,7.70
2019,04,27,01,30,7.70
2019,04,27,01,31,7.60
2019,04,27,01,32,7.60
2019,04,27,01,33,7.60
2019,04,27,01,34,7.60
2019,04,27,01,35,7.60
2019,04,27,01,36,7.60
2019,04,27,01,37,7.60
2019,04,27,01,38,7.60
2019,04,27,01,39,7.60
2019,04,27,01,40,7.60
2019,04,27,01,41,7.60
2019,04,27,01,42,7.50
2019,04,27,01,43,7.50
2019,04,27,01,44,7.50
2019,04,27,01,45,7.50
2019,04,27,01,46,7.50
2019,04,27,01,47,7.50
2019,04,27,01,48,7.40
2019,04,27,01,49,7.40
2019,04,27,01,50,7.40
2019,04,27,01,51,7.40
2019,04,27,01,52,7.40
2019,04,27,01,53,7.40
2019,04,27,01,54,7.40
2019,04,27,01,55,7.40
2019,04,27,01,56,7.40
2019,04,27,01,57,7.40
2019,04,27,01,58,7.40
2019,04,27,01,59,7.40
2019,04,27,02,00,7.40
2019,04,27,02,01,7.40
2019,04,27,02,02,7.50
2019,04,27,02,03,7.50
2019,04,27,02,04,7.50
2019,04,27,02,05,7.60
2019,04,27,02,06,7.60
2019,04,27,02,07,7.60
2019,04,27,02,08,7.60
2019,04,27,02,09,7.60
2019,04,27,02,10,7.60
2019,04,27,02,11,7.60
2019,04,27,02,12,7.60
2019,04,27,02,13,7.60
2019,04,27,02,14,7.60
2019,04,27,02,15,7.60
2019,04,27,02,16,7.60
2019,04,27,02,17,7.60
2019,04,27,02,18,7.60
2019,04,27,02,19,7.60
2019,04,27,02,20,7.60
2019,04,27,02,21,7.60
2019,04,27,02,22,7.60
2019,04,27,02,23,7.60
2019,04,27,02,24,7.60
2019,04,27,02,25,7.60
2019,04,27,02,26,7.60
2019,04,27,02,27,7.60
2019,04,27,02,28,7.60
2019,04,27,02,29,7.60
2019,04,27,02,30,7.60
2019,04,27,02,31,7.60
2019,04,27,02,32,7.60
2019,04,27,02,33,7.60
2019,04,27,02,34,7.60
2019,04,27,02,35,7.50
2019,04,27,02,36,7.50
2019,04,27,02,37,7.50
2019,04,27,02,38,7.50
2019,04,27,02,39,7.40
2019,04,27,02,40,7.40
2019,04,27,02,41,7.40
2019,04,27,02,42,7.40
2019,04,27,02,43,7.40
2019,04,27,02,44,7.40
2019,04,27,02,45,7.40
2019,04,27,02,46,7.40
2019,04,27,02,47,7.40
2019,04,27,02,48,7.40
2019,04,27,02,49,7.40
2019,04,27,02,50,7.40
2019,04,27,02,51,7.40
2019,04,27,02,52,7.40
2019,04,27,02,53,7.40
2019,04,27,02,54,7.40
2019,04,27,02,55,7.40
2019,04,27,02,56,7.30
2019,04,27,02,57,7.30
2019,04,27,02,58,7.30
2019,04,27,02,59,7.30
2019,04,27,03,00,7.30
2019,04,27,03,01,7.30
2019,04,27,03,02,7.30
2019,04,27,03,03,7.30
2019,04,27,03,04,7.30
2019,04,27,03,05,7.30
2019,04,27,03,06,7.30
2019,04,27,03,07,7.30
2019,04,27,03,08,7.30
2019,04,27,03,09,7.30
2019,04,27,03,10,7.30
2019,04,27,03,11,7.30
2019,04,27,03,12,7.20
2019,04,27,03,13,7.20
2019,04,27,03,14,7.20
2019,04,27,03,15,7.20
2019,04,27,03,16,7.20
2019,04,27,03,17,7.20
2019,04,27,03,18,7.20
2019,04,27,03,19,7.20
2019,04,27,03,20,7.10
2019,04,27,03,21,7.10
2019,04,27,03,22,7.10
2019,04,27,03,23,7.10
2019,04,27,03,24,7.10
2019,04,27,03,25,7.10
2019,04,27,03,26,7.10
2019,04,27,03,27,7.10
2019,04,27,03,28,7.10
2019,04,27,03,29,7.10
2019,04,27,03,30,7.10
2019,04,27,03,31,7.10
2019,04,27,03,32,7.10
2019,04,27,03,33,7.10
2019,04,27,03,34,7.10
2019,04,27,03,35,7.10
2019,04,27,03,36,7.10
2019,04,27,03,37,7.10
2019,04,27,03,38,7.10
2019,04,27,03,39,7.10
2019,04,27,03,40,7.00
2019,04,27,03,41,7.00
2019,04,27,03,42,7.00
2019,04,27,03,43,7.00
2019,04,27,03,44,7.00
2019,04,27,03,45,7.00
2019,04,27,03,46,7.00
2019,04,27,03,47,7.00
2019,04,27,03,48,7.00
2019,04,27,03,49,7.00
2019,04,27,03,50,6.90
2019,04,27,03,51,6.90
2019,04,27,03,52,6.90
2019,04,27,03,53,6.90
2019,04,27,03,54,6.90
2019,04,27,03,55,6.90
2019,04,27,03,56,6.90
2019,04,27,03,57,6.90
2019,04,27,03,58,6.90
2019,04,27,03,59,6.90
2019,04,27,04,00,6.90
2019,04,27,04,01,6.90
2019,04,27,04,02,6.80
2019,04,27,04,03,6.80
2019,04,27,05,04,6.50
2019,04,27,05,05,6.40
2019,04,27,05,06,6.40
2019,04,27,05,07,6.40
2019,04,27,05,08,6.40
2019,04,27,05,09,6.40
2019,04,27,05,10,6.40
2019,04,27,05,11,6.40
2019,04,27,05,12,6.40
2019,04,27,05,13,6.40
2019,04,27,05,14,6.40
2019,04,27,05,15,6.40
2019,04,27,05,16,6.40
2019,04,27,05,17,6.40
2019,04,27,05,18,6.40
2019,04,27,05,19,6.40
2019,04,27,05,20,6.30
2019,04,27,05,21,6.30
2019,04,27,05,22,6.30
2019,04,27,05,23,6.30
2019,04,27,05,24,6.30
2019,04,27,05,25,6.30
2019,04,27,05,26,6.30
2019,04,27,05,27,6.30
2019,04,27,05,28,6.30
2019,04,27,05,29,6.30
2019,04,27,05,30,6.30
2019,04,27,05,31,6.30
2019,04,27,05,32,6.30
2019,04,27,05,33,6.30
2019,04,27,05,34,6.30
2019,04,27,05,35,6.30
2019,04,27,05,36,6.30
2019,04,27,05,37,6.20
2019,04,27,05,38,6.20
2019,04,27,05,39,6.20
2019,04,27,05,40,6.20
2019,04,27,05,41,6.20
2019,04,27,05,42,6.20
2019,04,27,05,43,6.20
2019,04,27,05,44,6.20
2019,04,27,05,45,6.30
2019,04,27,05,46,6.30
2019,04,27,05,47,6.30
2019,04,27,05,48,6.20
2019,04,27,05,49,6.20
2019,04,27,05,50,6.20
2019,04,27,05,51,6.20
2019,04,27,05,52,6.10
2019,04,27,05,53,6.10
2019,04,27,05,54,6.10
2019,04,27,05,55,6.10
2019,04,27,05,56,6.10
2019,04,27,05,57,6.10
2019,04,27,05,58,6.10
2019,04,27,05,59,6.10
2019,04,27,06,00,6.10
2019,04,27,06,01,6.10
2019,04,27,06,02,6.10
2019,04,27,06,03,6.10
2019,04,27,06,04,6.10
2019,04,27,06,05,6.10
2019,04,27,06,06,6.10
2019,04,27,06,07,6.10
2019,04,27,06,08,6.10
2019,04,27,06,09,6.10
2019,04,27,06,10,6.10
2019,04,27,06,11,6.10
2019,04,27,06,12,6.10
2019,04,27,06,13,6.10
2019,04,27,06,14,6.10
2019,04,27,06,15,6.10
2019,04,27,06,16,6.10
2019,04,27,06,17,6.10
2019,04,27,06,18,6.10
2019,04,27,06,19,6.10
2019,04,27,06,20,6.10
2019,04,27,06,21,6.10
2019,04,27,06,22,6.10
2019,04,27,06,23,6.10
2019,04,27,06,24,6.10
2019,04,27,06,25,6.10
2019,04,27,06,26,6.10
2019,04,27,06,27,6.10
2019,04,27,06,28,6.10
2019,04,27,06,29,6.10
2019,04,27,06,30,6.00
2019,04,27,06,31,6.10
2019,04,27,06,32,6.10
2019,04,27,06,33,6.10
2019,04,27,06,34,6.10
2019,04,27,06,35,6.10
2019,04,27,06,36,6.10
2019,04,27,06,37,6.10
2019,04,27,06,38,6.10
2019,04,27,06,39,6.10
2019,04,27,06,40,6.10
2019,04,27,06,41,6.10
2019,04,27,06,42,6.10
2019,04,27,06,43,6.10
2019,04,27,06,44,6.10
2019,04,27,06,45,6.10
2019,04,27,06,46,6.10
2019,04,27,06,47,6.10
2019,04,27,06,48,6.10
2019,04,27,06,49,6.10
2019,04,27,06,50,6.00
2019,04,27,06,51,6.00
2019,04,27,06,52,6.00
2019,04,27,06,53,6.00
2019,04,27,06,54,6.00
2019,04,27,06,55,6.00
2019,04,27,06,56,6.00
2019,04,27,06,57,6.00
2019,04,27,06,58,6.00
2019,04,27,06,59,6.10
2019,04,27,07,00,6.10
2019,04,27,07,01,6.10
2019,04,27,07,02,6.10
2019,04,27,07,03,6.10
2019,04,27,07,04,6.10
2019,04,27,07,05,6.10
2019,04,27,07,06,6.20
2019,04,27,07,07,6.20
2019,04,27,07,08,6.20
2019,04,27,07,09,6.20
2019,04,27,07,10,6.30
2019,04,27,07,11,6.30
2019,04,27,07,12,6.30
2019,04,27,07,13,6.40
2019,04,27,07,14,6.40
2019,04,27,07,15,6.40
2019,04,27,07,16,6.50
2019,04,27,07,17,6.50
2019,04,27,07,18,6.60
2019,04,27,07,19,6.60
2019,04,27,07,20,6.70
2019,04,27,07,21,6.70
2019,04,27,07,22,6.80
2019,04,27,07,23,6.80
2019,04,27,07,24,6.90
2019,04,27,07,25,6.90
2019,04,27,07,26,6.90
2019,04,27,07,27,7.00
2019,04,27,07,28,7.00
2019,04,27,07,29,7.10
2019,04,27,07,30,7.20
2019,04,27,07,31,7.20
2019,04,27,07,32,7.20
2019,04,27,07,33,7.30
2019,04,27,07,34,7.30
2019,04,27,07,35,7.30
2019,04,27,07,36,7.40
2019,04,27,07,37,7.40
2019,04,27,07,38,7.40
2019,04,27,07,39,7.50
2019,04,27,07,40,7.50
2019,04,27,07,41,7.60
2019,04,27,07,42,7.70
2019,04,27,07,43,7.70
2019,04,27,07,44,7.70
2019,04,27,07,45,7.70
2019,04,27,07,46,7.80
2019,04,27,07,47,7.80
2019,04,27,07,48,7.80
2019,04,27,07,49,7.90
2019,04,27,07,50,7.90
2019,04,27,07,51,8.00
2019,04,27,07,52,8.10
2019,04,27,07,53,8.10
2019,04,27,07,54,8.20
2019,04,27,07,55,8.20
2019,04,27,07,56,8.20
2019,04,27,07,57,8.20
2019,04,27,07,58,8.20
2019,04,27,07,59,8.30
2019,04,27,08,00,8.30
2019,04,27,08,01,8.30
2019,04,27,08,02,8.30
2019,04,27,08,03,8.30
2019,04,27,08,04,8.40
2019,04,27,08,05,8.40
2019,04,27,08,06,8.40
2019,04,27,08,07,8.50
2019,04,27,08,08,8.50
2019,04,27,08,09,8.60
2019,04,27,08,10,8.70
2019,04,27,08,11,8.70
2019,04,27,08,12,8.80
2019,04,27,08,13,8.80
2019,04,27,08,14,8.80
2019,04,27,08,15,8.80
2019,04,27,08,16,8.80
2019,04,27,08,17,8.80
2019,04,27,08,18,8.80
2019,04,27,08,19,8.80
2019,04,27,08,20,8.90
2019,04,27,08,21,8.90
2019,04,27,08,22,8.90
2019,04,27,08,23,8.90
2019,04,27,08,24,8.80
2019,04,27,08,25,8.90
2019,04,27,08,26,8.90
2019,04,27,08,27,9.00
2019,04,27,08,28,9.10
2019,04,27,08,29,9.20
2019,04,27,08,30,9.30
2019,04,27,08,31,9.30
2019,04,27,08,32,9.20
2019,04,27,08,33,9.20
2019,04,27,08,34,9.10
2019,04,27,08,35,9.10
2019,04,27,08,36,9.10
2019,04,27,08,37,9.10
2019,04,27,08,38,9.10
2019,04,27,08,39,9.10
2019,04,27,08,40,9.00
2019,04,27,08,41,9.00
2019,04,27,08,42,9.00
2019,04,27,08,43,9.00
2019,04,27,08,44,8.90
2019,04,27,08,45,8.90
2019,04,27,08,46,9.00
2019,04,27,08,47,9.00
2019,04,27,08,48,9.10
2019,04,27,08,49,9.20
2019,04,27,08,50,9.20
2019,04,27,08,51,9.20
2019,04,27,08,52,9.30
2019,04,27,08,53,9.30
2019,04,27,08,54,9.30
2019,04,27,08,55,9.40
2019,04,27,08,56,9.50
2019,04,27,08,57,9.50
2019,04,27,08,58,9.60
2019,04,27,08,59,9.70
2019,04,27,09,00,9.60
2019,04,27,09,01,9.60
2019,04,27,09,02,9.60
2019,04,27,09,03,9.60
2019,04,27,09,04,9.70
2019,04,27,09,05,9.70
2019,04,27,09,06,9.70
2019,04,27,09,07,9.80
2019,04,27,09,08,9.80
2019,04,27,09,09,9.80
2019,04,27,09,10,9.80
2019,04,27,09,11,9.80
2019,04,27,09,12,9.90
2019,04,27,09,13,9.90
2019,04,27,09,14,10.00
2019,04,27,09,15,10.10
2019,04,27,09,16,10.20
2019,04,27,09,17,10.20
2019,04,27,09,18,10.30
2019,04,27,09,19,10.30
2019,04,27,09,20,10.30
2019,04,27,09,21,10.40
2019,04,27,09,22,10.40
2019,04,27,09,23,10.40
2019,04,27,09,24,10.40
2019,04,27,09,25,10.50
2019,04,27,09,26,10.50
2019,04,27,09,27,10.50
2019,04,27,09,28,10.50
2019,04,27,09,29,10.60
2019,04,27,09,30,10.50
2019,04,27,09,31,10.50
2019,04,27,09,32,10.40
2019,04,27,09,33,10.40
2019,04,27,09,34,10.30
2019,04,27,09,35,10.30
2019,04,27,09,36,10.30
2019,04,27,09,37,10.30
2019,04,27,09,38,10.30
2019,04,27,09,39,10.20
2019,04,27,09,40,10.20
2019,04,27,09,41,10.20
2019,04,27,09,42,10.20
2019,04,27,09,43,10.20
2019,04,27,09,44,10.30
2019,04,27,09,45,10.40
2019,04,27,09,46,10.50
2019,04,27,09,47,10.60
2019,04,27,09,48,10.70
2019,04,27,09,49,10.70
2019,04,27,09,50,10.80
2019,04,27,09,51,10.90
2019,04,27,09,52,11.00
2019,04,27,09,53,11.10
2019,04,27,09,54,11.20
2019,04,27,09,55,11.20
2019,04,27,09,56,11.20
2019,04,27,09,57,11.10
2019,04,27,09,58,10.90
2019,04,27,09,59,10.90
2019,04,27,10,00,11.00
2019,04,27,10,01,11.00
2019,04,27,10,02,10.90
2019,04,27,10,03,10.80
2019,04,27,10,04,10.80
2019,04,27,10,05,10.80
2019,04,27,10,06,10.70
2019,04,27,10,07,10.70
2019,04,27,10,08,10.70
2019,04,27,10,09,10.70
2019,04,27,10,10,10.70
2019,04,27,10,11,10.80
2019,04,27,10,12,10.80
2019,04,27,10,13,11.00
2019,04,27,10,14,11.10
2019,04,27,10,15,11.30
2019,04,27,10,16,11.40
2019,04,27,10,17,11.40
2019,04,27,10,18,11.30
2019,04,27,10,19,11.20
2019,04,27,10,20,11.10
2019,04,27,10,21,11.10
2019,04,27,10,22,11.00
2019,04,27,10,23,10.90
2019,04,27,10,24,10.90
2019,04,27,10,25,10.90
2019,04,27,10,26,10.90
2019,04,27,10,27,10.90
2019,04,27,10,28,10.90
2019,04,27,10,29,11.00
2019,04,27,10,30,11.00
2019,04,27,10,31,11.10
2019,04,27,10,32,11.00
2019,04,27,10,33,11.10
2019,04,27,10,34,11.10
2019,04,27,10,35,11.10
2019,04,27,10,36,11.10
2019,04,27,10,37,11.20
2019,04,27,10,38,11.30
2019,04,27,10,39,11.30
2019,04,27,10,40,11.40
2019,04,27,10,41,11.40
2019,04,27,10,42,11.50
2019,04,27,10,43,11.50
2019,04,27,10,44,11.60
2019,04,27,10,45,11.70
2019,04,27,10,46,11.80
2019,04,27,10,47,11.80
2019,04,27,10,48,11.80
2019,04,27,10,49,11.80
2019,04,27,10,50,11.90
2019,04,27,10,51,12.00
2019,04,27,10,52,12.10
2019,04,27,10,53,12.20
2019,04,27,10,54,12.30
2019,04,27,10,55,12.30
2019,04,27,10,56,12.30
2019,04,27,10,57,12.20
2019,04,27,10,58,12.10
2019,04,27,10,59,12.00
2019,04,27,11,00,11.80
2019,04,27,11,01,11.70
2019,04,27,11,02,11.60
2019,04,27,11,03,11.50
2019,04,27,11,04,11.40
2019,04,27,11,05,11.50
2019,04,27,11,06,11.60
2019,04,27,11,07,11.70
2019,04,27,11,08,11.90
2019,04,27,11,09,12.00
2019,04,27,11,10,12.10
2019,04,27,11,11,12.10
2019,04,27,11,12,12.20
2019,04,27,11,13,12.20
2019,04,27,11,14,12.20
2019,04,27,11,15,12.20
2019,04,27,11,16,12.20
2019,04,27,11,17,12.30
2019,04,27,11,18,12.20
2019,04,27,11,19,12.10
2019,04,27,11,20,12.10
2019,04,27,11,21,12.10
2019,04,27,11,22,12.10
2019,04,27,11,23,12.10
2019,04,27,11,24,12.20
2019,04,27,11,25,12.20
2019,04,27,11,26,12.30
2019,04,27,11,27,12.30
2019,04,27,11,28,12.40
2019,04,27,11,29,12.50
2019,04,27,11,30,12.60
2019,04,27,11,31,12.80
2019,04,27,11,32,12.90
2019,04,27,11,33,12.90
2019,04,27,11,34,12.80
2019,04,27,11,35,12.90
2019,04,27,11,36,12.90
2019,04,27,11,37,12.80
2019,04,27,11,38,12.80
2019,04,27,11,39,12.80
2019,04,27,11,40,12.90
2019,04,27,11,41,13.00
2019,04,27,11,42,13.00
2019,04,27,11,43,13.10
2019,04,27,11,44,13.10
2019,04,27,11,45,13.20
2019,04,27,11,46,13.10
2019,04,27,11,47,13.10
2019,04,27,11,48,13.00
2019,04,27,11,49,12.90
2019,04,27,11,50,12.70
2019,04,27,11,51,12.40
2019,04,27,11,52,12.20
2019,04,27,11,53,12.00
2019,04,27,11,54,11.90
2019,04,27,11,55,11.90
2019,04,27,11,56,11.90
2019,04,27,11,57,11.80
2019,04,27,11,58,11.70
2019,04,27,11,59,11.50
2019,04,27,12,00,11.40
2019,04,27,12,01,11.40
2019,04,27,12,02,11.30
2019,04,27,12,03,11.20
2019,04,27,12,04,11.10
2019,04,27,12,05,11.00
2019,04,27,12,06,10.90
2019,04,27,12,07,10.90
2019,04,27,12,08,10.90
2019,04,27,12,09,10.90
2019,04,27,12,10,11.00
2019,04,27,12,11,11.10
2019,04,27,12,12,11.10
2019,04,27,12,13,11.30
2019,04,27,12,14,11.40
2019,04,27,12,15,11.50
2019,04,27,12,16,11.60
2019,04,27,12,17,11.60
2019,04,27,12,18,11.60
2019,04,27,12,19,11.60
2019,04,27,12,20,11.60
2019,04,27,12,21,11.70
2019,04,27,12,22,11.80
2019,04,27,12,23,11.90
2019,04,27,12,24,11.90
2019,04,27,12,25,11.80
2019,04,27,12,26,11.70
2019,04,27,12,27,11.60
2019,04,27,12,28,11.50
2019,04,27,12,29,11.40
2019,04,27,12,30,11.30
2019,04,27,12,31,11.30
2019,04,27,12,32,11.20
2019,04,27,12,33,11.10
2019,04,27,12,34,11.10
2019,04,27,12,35,11.00
2019,04,27,12,36,11.00
2019,04,27,12,37,10.90
2019,04,27,12,38,10.90
2019,04,27,12,39,10.90
2019,04,27,12,40,10.90
2019,04,27,12,41,10.80
2019,04,27,12,42,10.80
2019,04,27,12,43,10.70
2019,04,27,12,44,10.50
2019,04,27,12,45,10.30
2019,04,27,12,46,10.20
2019,04,27,12,47,10.00
2019,04,27,12,48,9.90
2019,04,27,12,49,9.80
2019,04,27,12,50,9.70
2019,04,27,12,51,9.60
2019,04,27,12,52,9.50
2019,04,27,12,53,9.40
2019,04,27,12,54,9.30
2019,04,27,12,55,9.30
2019,04,27,12,56,9.20
2019,04,27,12,57,9.00
2019,04,27,12,58,8.90
2019,04,27,12,59,8.80
2019,04,27,13,00,8.60
2019,04,27,13,01,8.60
2019,04,27,13,02,8.50
2019,04,27,13,03,8.50
2019,04,27,13,04,8.40
2019,04,27,13,05,8.40
2019,04,27,13,06,8.30
2019,04,27,13,07,8.20
2019,04,27,13,08,8.20
2019,04,27,13,09,8.20
2019,04,27,13,10,8.20
2019,04,27,13,11,8.20
2019,04,27,13,12,8.20
2019,04,27,13,13,8.30
2019,04,27,13,14,8.30
2019,04,27,13,15,8.30
2019,04,27,13,16,8.30
2019,04,27,13,17,8.30
2019,04,27,13,18,8.40
2019,04,27,13,19,8.40
2019,04,27,13,20,8.50
2019,04,27,13,21,8.50
2019,04,27,13,22,8.60
2019,04,27,13,23,8.60
2019,04,27,13,24,8.70
2019,04,27,13,25,8.80
2019,04,27,13,26,8.80
2019,04,27,13,27,8.90
2019,04,27,13,28,9.00
2019,04,27,13,29,9.10
2019,04,27,13,30,9.10
2019,04,27,13,31,9.10
2019,04,27,13,32,9.20
2019,04,27,13,33,9.20
2019,04,27,13,34,9.30
2019,04,27,13,35,9.30
2019,04,27,13,36,9.30
2019,04,27,13,37,9.30
2019,04,27,13,38,9.30
2019,04,27,13,39,9.30
2019,04,27,13,40,9.30
2019,04,27,13,41,9.30
2019,04,27,13,42,9.30
2019,04,27,13,43,9.30
2019,04,27,13,44,9.30
2019,04,27,13,45,9.40
2019,04,27,13,46,9.50
2019,04,27,13,47,9.60
2019,04,27,13,48,9.70
2019,04,27,13,49,9.90
2019,04,27,13,50,10.10
2019,04,27,13,51,10.20
2019,04,27,13,52,10.40
2019,04,27,13,53,10.50
2019,04,27,13,54,10.70
2019,04,27,13,55,10.80
2019,04,27,13,56,10.80
2019,04,27,13,57,10.80
2019,04,27,13,58,10.90
2019,04,27,13,59,10.90
2019,04,27,14,00,10.90
2019,04,27,14,01,11.00
2019,04,27,14,02,11.00
2019,04,27,14,03,11.10
2019,04,27,14,04,11.10
2019,04,27,14,05,11.20
2019,04,27,14,06,11.30
2019,04,27,14,07,11.40
2019,04,27,14,08,11.40
2019,04,27,14,09,11.60
2019,04,27,14,10,11.60
2019,04,27,14,11,11.60
2019,04,27,14,12,11.60
2019,04,27,14,13,11.60
2019,04,27,14,14,11.60
2019,04,27,14,15,11.60
2019,04,27,14,16,11.70
2019,04,27,14,17,11.70
2019,04,27,14,18,11.80
2019,04,27,14,19,11.80
2019,04,27,14,20,11.80
2019,04,27,14,21,11.70
2019,04,27,14,22,11.70
2019,04,27,14,23,11.70
2019,04,27,14,24,11.70
2019,04,27,14,25,11.60
2019,04,27,14,26,11.60
2019,04,27,14,27,11.60
2019,04,27,14,28,11.60
2019,04,27,14,29,11.60
2019,04,27,14,30,11.60
2019,04,27,14,31,11.70
2019,04,27,14,32,11.80
2019,04,27,14,33,11.90
2019,04,27,14,34,12.00
2019,04,27,14,35,12.10
2019,04,27,14,36,12.00
2019,04,27,14,37,12.00
2019,04,27,14,38,11.80
2019,04,27,14,39,11.70
2019,04,27,14,40,11.60
2019,04,27,14,41,11.50
2019,04,27,14,42,11.40
2019,04,27,14,43,11.30
2019,04,27,14,44,11.20
2019,04,27,14,45,11.10
2019,04,27,14,46,11.00
2019,04,27,14,47,11.00
2019,04,27,14,48,10.90
2019,04,27,14,49,10.80
2019,04,27,14,50,10.80
2019,04,27,14,51,10.80
2019,04,27,14,52,10.80
2019,04,27,14,53,10.80
2019,04,27,14,54,10.80
2019,04,27,14,55,10.90
2019,04,27,14,56,10.90
2019,04,27,14,57,10.90
2019,04,27,14,58,10.90
2019,04,27,14,59,10.80
2019,04,27,15,00,10.80
2019,04,27,15,01,10.80
2019,04,27,15,02,10.80
2019,04,27,15,03,10.80
2019,04,27,15,04,10.70
2019,04,27,15,05,10.70
2019,04,27,15,06,10.60
2019,04,27,15,07,10.50
2019,04,27,15,08,10.40
2019,04,27,15,09,10.30
2019,04,27,15,10,10.20
2019,04,27,15,11,10.20
2019,04,27,15,12,10.30
2019,04,27,15,13,10.30
2019,04,27,15,14,10.40
2019,04,27,15,15,10.40
2019,04,27,15,16,10.40
2019,04,27,15,17,10.40
2019,04,27,15,18,10.40
2019,04,27,15,19,10.40
2019,04,27,15,20,10.50
2019,04,27,15,21,10.50
2019,04,27,15,22,10.50
2019,04,27,15,23,10.50
2019,04,27,15,24,10.50
2019,04,27,15,25,10.60
2019,04,27,15,26,10.60
2019,04,27,15,27,10.60
2019,04,27,15,28,10.60
2019,04,27,15,29,10.70
2019,04,27,15,30,10.70
2019,04,27,15,31,10.80
2019,04,27,15,32,10.90
2019,04,27,15,33,11.00
2019,04,27,15,34,11.10
2019,04,27,15,35,11.20
2019,04,27,15,36,11.30
2019,04,27,15,37,11.30
2019,04,27,15,38,11.30
2019,04,27,15,39,11.30
2019,04,27,15,40,11.40
2019,04,27,15,41,11.50
2019,04,27,15,42,11.70
2019,04,27,15,43,11.80
2019,04,27,15,44,11.90
2019,04,27,15,45,12.00
2019,04,27,15,46,12.10
2019,04,27,15,47,12.10
2019,04,27,15,48,12.20
2019,04,27,15,49,12.20
2019,04,27,15,50,12.30
2019,04,27,15,51,12.30
2019,04,27,15,52,12.30
2019,04,27,15,53,12.30
2019,04,27,15,54,12.30
2019,04,27,15,55,12.30
2019,04,27,15,56,12.30
2019,04,27,15,57,12.30
2019,04,27,15,58,12.40
2019,04,27,15,59,12.40
2019,04,27,16,00,12.50
2019,04,27,16,01,12.60
2019,04,27,16,02,12.60
2019,04,27,16,03,12.60
2019,04,27,16,04,12.60
2019,04,27,16,05,12.60
2019,04,27,16,06,12.60
2019,04,27,16,07,12.60
2019,04,27,16,08,12.60
2019,04,27,16,09,12.70
2019,04,27,17,04,13.40
2019,04,27,17,05,13.40
2019,04,27,17,06,13.40
2019,04,27,17,07,13.40
2019,04,27,17,08,13.50
2019,04,27,17,09,13.60
2019,04,27,17,10,13.70
2019,04,27,17,11,13.70
2019,04,27,17,12,13.70
2019,04,27,17,13,13.70
2019,04,27,17,14,13.70
2019,04,27,17,15,13.70
2019,04,27,17,16,13.70
2019,04,27,17,17,13.70
2019,04,27,17,18,13.70
2019,04,27,17,19,13.70
2019,04,27,17,20,13.70
2019,04,27,17,21,13.70
2019,04,27,17,22,13.70
2019,04,27,17,23,13.80
2019,04,27,17,24,13.80
2019,04,27,17,25,13.90
2019,04,27,17,26,13.90
2019,04,27,17,27,13.90
2019,04,27,17,28,13.90
2019,04,27,17,29,13.80
2019,04,27,17,30,13.70
2019,04,27,17,31,13.60
2019,04,27,17,32,13.50
2019,04,27,17,33,13.40
2019,04,27,17,34,13.30
2019,04,27,17,35,13.20
2019,04,27,17,36,13.10
2019,04,27,17,37,13.00
2019,04,27,17,38,12.90
2019,04,27,17,39,12.90
2019,04,27,17,40,13.00
2019,04,27,17,41,13.00
2019,04,27,17,42,13.00
2019,04,27,17,43,12.90
2019,04,27,17,44,12.90
2019,04,27,17,45,12.90
2019,04,27,17,46,12.90
2019,04,27,17,47,12.80
2019,04,27,17,48,12.80
2019,04,27,17,49,12.80
2019,04,27,17,50,12.80
2019,04,27,17,51,12.80
2019,04,27,17,52,12.80
2019,04,27,17,53,12.80
2019,04,27,17,54,12.70
2019,04,27,17,55,12.70
2019,04,27,17,56,12.70
2019,04,27,17,57,12.80
2019,04,27,17,58,12.80
2019,04,27,17,59,12.90
2019,04,27,18,00,12.90
2019,04,27,18,01,13.00
2019,04,27,18,02,13.00
2019,04,27,18,03,13.10
2019,04,27,18,04,13.10
2019,04,27,18,05,13.20
2019,04,27,18,06,13.30
2019,04,27,18,07,13.30
2019,04,27,18,08,13.40
2019,04,27,18,09,13.40
2019,04,27,18,10,13.40
2019,04,27,18,11,13.50
2019,04,27,18,12,13.60
2019,04,27,18,13,13.60
2019,04,27,18,14,13.60
2019,04,27,18,15,13.50
2019,04,27,18,16,13.50
2019,04,27,18,17,13.50
2019,04,27,18,18,13.50
2019,04,27,18,19,13.50
2019,04,27,18,20,13.60
2019,04,27,18,21,13.60
2019,04,27,18,22,13.60
2019,04,27,18,23,13.50
2019,04,27,18,24,13.50
2019,04,27,18,25,13.50
2019,04,27,18,26,13.50
2019,04,27,18,27,13.50
2019,04,27,18,28,13.50
2019,04,27,18,29,13.50
2019,04,27,18,30,13.50
2019,04,27,18,31,13.50
2019,04,27,18,32,13.50
2019,04,27,18,33,13.50
2019,04,27,18,34,13.50
2019,04,27,18,35,13.50
2019,04,27,18,36,13.50
2019,04,27,18,37,13.50
2019,04,27,18,38,13.60
2019,04,27,18,39,13.60
2019,04,27,18,40,13.70
2019,04,27,18,41,13.70
2019,04,27,18,42,13.70
2019,04,27,18,43,13.60
2019,04,27,18,44,13.60
2019,04,27,18,45,13.60
2019,04,27,18,46,13.60
2019,04,27,18,47,13.70
2019,04,27,18,48,13.80
2019,04,27,18,49,13.80
2019,04,27,18,50,13.90
2019,04,27,18,51,13.90
2019,04,27,18,52,13.90
2019,04,27,18,53,14.00
2019,04,27,18,54,14.00
2019,04,27,18,55,13.90
2019,04,27,18,56,13.90
2019,04,27,18,57,13.90
2019,04,27,18,58,13.90
2019,04,27,18,59,13.90
2019,04,27,19,00,13.90
2019,04,27,19,01,14.00
2019,04,27,19,02,14.00
2019,04,27,19,03,13.90
2019,04,27,19,04,14.00
2019,04,27,19,05,14.00
2019,04,27,19,06,14.00
2019,04,27,19,07,13.90
2019,04,27,19,08,13.90
2019,04,27,19,09,13.80
2019,04,27,19,10,13.80
2019,04,27,19,11,13.70
2019,04,27,19,12,13.70
2019,04,27,19,13,13.60
2019,04,27,19,14,13.60
2019,04,27,19,15,13.50
2019,04,27,19,16,13.50
2019,04,27,19,17,13.40
2019,04,27,19,18,13.40
2019,04,27,19,19,13.30
2019,04,27,19,20,13.30
2019,04,27,19,21,13.20
2019,04,27,19,22,13.20
2019,04,27,19,23,13.20
2019,04,27,19,24,13.10
2019,04,27,19,25,13.00
2019,04,27,19,26,13.00
2019,04,27,19,27,12.90
2019,04,27,19,28,12.90
2019,04,27,19,29,12.80
2019,04,27,19,30,12.80
2019,04,27,19,31,12.70
2019,04,27,19,32,12.70
2019,04,27,19,33,12.70
2019,04,27,19,34,12.70
2019,04,27,19,35,12.70
2019,04,27,19,36,12.70
2019,04,27,19,37,12.70